When you browse on this site, cookies collect data to enhance your experience and personalize the content and advertising you see.
Visit our Privacy Policy to learn more. By continuing to use the site, you agree to this use of cookies and data.
  • In Schweiz
  • Länderverzeichnis
  • Für 7 Tage
  • Wassertemperatur
  • Satellitenkarten
  • Wetterkarte
  • Widgets
  • user-avatar
    Anmelden

    Stündliche Wetter Beijing

    Heute, 22 Januar, Dienstag

    Zeit Temperatur Niederschläge Wind Luftdruck Luftfeuchtigkeit
    00:00 +1°C° 0 mm 2 m/S 762 mmHg 19%
    01:00 -1°C° 0 mm 2 m/S 762 mmHg 20%
    02:00 +1°C° 0 mm 1 m/S 762 mmHg 21%
    03:00 +1°C° 0 mm 1 m/S 761 mmHg 21%
    04:00 -1°C° 0 mm 2 m/S 761 mmHg 22%
    05:00 -1°C° 0 mm 2 m/S 761 mmHg 22%
    06:00 -1°C° 0 mm 2 m/S 761 mmHg 22%
    07:00 -2°C° 0 mm 2 m/S 761 mmHg 23%
    08:00 -1°C° 0 mm 3 m/S 761 mmHg 23%
    09:00 +1°C° 0 mm 3 m/S 761 mmHg 20%
    10:00 +3°C° 0 mm 3 m/S 761 mmHg 18%
    11:00 +4°C° 0 mm 3 m/S 761 mmHg 16%
    12:00 +5°C° 0 mm 3 m/S 761 mmHg 15%
    13:00 +8°C° 0 mm 2 m/S 760 mmHg 13%
    14:00 +9°C° 0 mm 2 m/S 760 mmHg 12%
    15:00 +8°C° 0 mm 2 m/S 760 mmHg 13%
    16:00 +8°C° 0 mm 1 m/S 760 mmHg 14%
    17:00 +8°C° 0 mm 1 m/S 761 mmHg 15%
    18:00 +7°C° 0 mm 1 m/S 761 mmHg 16%
    19:00 +5°C° 0 mm 1 m/S 761 mmHg 18%
    20:00 +4°C° 0 mm 1 m/S 761 mmHg 19%
    21:00 +4°C° 0 mm 1 m/S 762 mmHg 20%
    22:00 +3°C° 0 mm 1 m/S 762 mmHg 21%
    23:00 +3°C° 0 mm 1 m/S 762 mmHg 21%

    Morgen, 23 Januar, Mittwoch

    Zeit Temperatur Niederschläge Wind Luftdruck Luftfeuchtigkeit
    00:00 +2°C° 0 mm 2 m/S 763 mmHg 22%
    01:00 +1°C° 0 mm 2 m/S 763 mmHg 22%
    02:00 +1°C° 0 mm 2 m/S 763 mmHg 22%
    03:00 +1°C° 0 mm 2 m/S 763 mmHg 22%
    04:00 -1°C° 0 mm 2 m/S 763 mmHg 22%
    05:00 -1°C° 0 mm 2 m/S 763 mmHg 23%
    06:00 +1°C° 0 mm 1 m/S 764 mmHg 23%
    07:00 +1°C° 0 mm 1 m/S 764 mmHg 23%
    08:00 +1°C° 0 mm 1 m/S 764 mmHg 23%
    09:00 +2°C° 0 mm 1 m/S 765 mmHg 21%
    10:00 +4°C° 0 mm 1 m/S 765 mmHg 19%
    11:00 +6°C° 0 mm 1 m/S 765 mmHg 17%
    12:00 +7°C° 0 mm 1 m/S 764 mmHg 17%
    13:00 +7°C° 0 mm 1 m/S 764 mmHg 16%
    14:00 +8°C° 0 mm 1 m/S 763 mmHg 16%
    15:00 +8°C° 0 mm 1 m/S 764 mmHg 17%
    16:00 +7°C° 0 mm 1 m/S 764 mmHg 19%
    17:00 +7°C° 0 mm 1 m/S 764 mmHg 20%
    18:00 +6°C° 0 mm 1 m/S 764 mmHg 23%
    19:00 +5°C° 0 mm 1 m/S 765 mmHg 26%
    20:00 +4°C° 0 mm 1 m/S 765 mmHg 29%
    21:00 +3°C° 0 mm 1 m/S 765 mmHg 38%
    22:00 +2°C° 0 mm 1 m/S 766 mmHg 46%
    23:00 +1°C° 0 mm 1 m/S 766 mmHg 54%

    übermorgen, 24 Januar, Donnerstag

    Zeit Temperatur Niederschläge Wind Luftdruck Luftfeuchtigkeit
    00:00 +1°C° 0 mm 1 m/S 766 mmHg 60%
    01:00 +1°C° 0 mm 1 m/S 766 mmHg 65%
    02:00 0°C° 0 mm 1 m/S 766 mmHg 70%
    03:00 0°C° 0 mm 1 m/S 766 mmHg 72%
    04:00 0°C° 0 mm 1 m/S 766 mmHg 75%
    05:00 -1°C° 0 mm 1 m/S 765 mmHg 77%
    06:00 -1°C° 0 mm 1 m/S 766 mmHg 77%
    07:00 -1°C° 0 mm 1 m/S 766 mmHg 77%
    08:00 -1°C° 0 mm 1 m/S 766 mmHg 77%
    09:00 0°C° 0 mm 1 m/S 766 mmHg 72%
    10:00 +1°C° 0 mm 1 m/S 766 mmHg 66%
    11:00 +2°C° 0 mm 1 m/S 766 mmHg 61%
    12:00 +3°C° 0 mm 1 m/S 766 mmHg 58%
    13:00 +4°C° 0 mm 1 m/S 765 mmHg 55%
    14:00 +5°C° 0 mm 1 m/S 765 mmHg 51%
    15:00 +4°C° 0 mm 1 m/S 765 mmHg 52%
    16:00 +4°C° 0 mm 1 m/S 765 mmHg 52%
    17:00 +4°C° 0 mm 1 m/S 766 mmHg 53%
    18:00 +3°C° 0 mm 1 m/S 767 mmHg 56%
    19:00 +3°C° 0 mm 1 m/S 767 mmHg 59%
    20:00 +2°C° 0 mm 1 m/S 768 mmHg 61%
    21:00 +2°C° 0 mm 1 m/S 769 mmHg 63%
    22:00 +1°C° 0 mm 1 m/S 769 mmHg 65%
    23:00 +1°C° 0 mm 1 m/S 770 mmHg 67%

    25 Januar, Freitag

    Zeit Temperatur Niederschläge Wind Luftdruck Luftfeuchtigkeit
    00:00 +1°C° 0 mm 1 m/S 770 mmHg 65%
    01:00 +1°C° 0 mm 1 m/S 771 mmHg 63%
    02:00 +1°C° 0 mm 1 m/S 771 mmHg 60%
    03:00 0°C° 0 mm 1 m/S 771 mmHg 53%
    04:00 -2°C° 0 mm 2 m/S 772 mmHg 46%
    05:00 -2°C° 0 mm 2 m/S 772 mmHg 40%
    06:00 -2°C° 0 mm 2 m/S 772 mmHg 36%
    07:00 -2°C° 0 mm 2 m/S 773 mmHg 32%
    08:00 -3°C° 0 mm 2 m/S 774 mmHg 29%
    09:00 -1°C° 0 mm 2 m/S 774 mmHg 27%
    10:00 +1°C° 0 mm 2 m/S 774 mmHg 25%
    11:00 +2°C° 0 mm 2 m/S 774 mmHg 23%
    12:00 +3°C° 0 mm 2 m/S 774 mmHg 20%
    13:00 +4°C° 0 mm 2 m/S 773 mmHg 18%
    14:00 +5°C° 0 mm 2 m/S 773 mmHg 15%
    15:00 +4°C° 0 mm 2 m/S 773 mmHg 15%
    16:00 +5°C° 0 mm 1 m/S 773 mmHg 15%
    17:00 +5°C° 0 mm 1 m/S 773 mmHg 15%
    18:00 +4°C° 0 mm 1 m/S 773 mmHg 17%
    19:00 +3°C° 0 mm 1 m/S 774 mmHg 18%
    20:00 +2°C° 0 mm 1 m/S 774 mmHg 19%
    21:00 +1°C° 0 mm 1 m/S 775 mmHg 19%
    22:00 +1°C° 0 mm 1 m/S 775 mmHg 20%
    23:00 +1°C° 0 mm 1 m/S 775 mmHg 20%

    26 Januar, Samstag

    Zeit Temperatur Niederschläge Wind Luftdruck Luftfeuchtigkeit
    00:00 0°C° 0 mm 1 m/S 775 mmHg 21%
    01:00 0°C° 0 mm 1 m/S 775 mmHg 21%
    02:00 0°C° 0 mm 1 m/S 775 mmHg 21%
    03:00 0°C° 0 mm 1 m/S 775 mmHg 21%
    04:00 -1°C° 0 mm 1 m/S 774 mmHg 21%
    05:00 -1°C° 0 mm 1 m/S 774 mmHg 21%
    06:00 -1°C° 0 mm 1 m/S 774 mmHg 21%
    07:00 -2°C° 0 mm 0 m/S 774 mmHg 21%
    08:00 -2°C° 0 mm 0 m/S 774 mmHg 21%
    09:00 -1°C° 0 mm 0 m/S 774 mmHg 20%
    10:00 0°C° 0 mm 0 m/S 774 mmHg 19%
    11:00 +2°C° 0 mm 0 m/S 773 mmHg 18%
    12:00 +3°C° 0 mm 1 m/S 772 mmHg 20%
    13:00 +4°C° 0 mm 1 m/S 771 mmHg 23%
    14:00 +4°C° 0 mm 2 m/S 771 mmHg 25%
    15:00 +4°C° 0 mm 2 m/S 770 mmHg 28%
    16:00 +4°C° 0 mm 1 m/S 770 mmHg 30%
    17:00 +4°C° 0 mm 1 m/S 769 mmHg 32%
    18:00 +3°C° 0 mm 1 m/S 769 mmHg 33%
    19:00 +3°C° 0 mm 1 m/S 769 mmHg 34%
    20:00 +2°C° 0 mm 1 m/S 769 mmHg 34%
    21:00 +1°C° 0 mm 1 m/S 769 mmHg 34%
    22:00 +1°C° 0 mm 1 m/S 769 mmHg 34%
    23:00 +1°C° 0 mm 1 m/S 769 mmHg 34%

    27 Januar, Sonntag

    Zeit Temperatur Niederschläge Wind Luftdruck Luftfeuchtigkeit
    00:00 0°C° 0 mm 1 m/S 768 mmHg 34%
    01:00 0°C° 0 mm 1 m/S 768 mmHg 35%
    02:00 -1°C° 0 mm 0 m/S 767 mmHg 35%
    03:00 -1°C° 0 mm 0 m/S 767 mmHg 35%
    04:00 -1°C° 0 mm 0 m/S 766 mmHg 36%
    05:00 -2°C° 0 mm 0 m/S 766 mmHg 36%
    06:00 -2°C° 0 mm 0 m/S 766 mmHg 36%
    07:00 -2°C° 0 mm 0 m/S 766 mmHg 35%
    08:00 -2°C° 0 mm 0 m/S 766 mmHg 35%
    09:00 0°C° 0 mm 0 m/S 766 mmHg 31%
    10:00 +3°C° 0 mm 1 m/S 766 mmHg 27%
    11:00 +4°C° 0 mm 1 m/S 766 mmHg 23%
    12:00 +5°C° 0 mm 2 m/S 765 mmHg 20%
    13:00 +7°C° 0 mm 3 m/S 764 mmHg 18%
    14:00 +7°C° 0 mm 4 m/S 764 mmHg 16%
    15:00 +7°C° 0 mm 4 m/S 764 mmHg 15%
    16:00 +7°C° 0 mm 3 m/S 764 mmHg 15%
    17:00 +7°C° 0 mm 3 m/S 764 mmHg 15%
    18:00 +5°C° 0 mm 3 m/S 765 mmHg 16%
    19:00 +4°C° 0 mm 3 m/S 765 mmHg 17%
    20:00 +2°C° 0 mm 3 m/S 766 mmHg 18%
    21:00 +2°C° 0 mm 3 m/S 766 mmHg 18%
    22:00 +1°C° 0 mm 3 m/S 767 mmHg 19%
    23:00 +1°C° 0 mm 3 m/S 767 mmHg 20%
    Mehr zeigen